Location: Henham
(51.9333°N, 0.2500°E)
Time: 00:21:33
(UTC+00:00)

STARLINK-63 - Pass Details

Date: 23 October 2019
Orbit: 549 x 551 km, 53.0° (Epoch: 12 November)

Event Time Altitude Azimuth Distance (km) Brightness Sun altitude
Rises 18:45:05 0° 284° (WNW) 2,721 8.8 -18.5°
Reaches altitude 10° 18:47:19 10° 284° (WNW) 1,827 7.5 -18.9°
Maximum altitude 18:51:28 87° 194° (SSW) 557 3.5 -19.5°
Enters shadow 18:52:23 54° 110° (ESE) 673 3.6 -19.6°
